Location: *
(50.3440°N, 18.6237°E)
Time: 14:43:31
(UTC+00:00)

CSL-04 Rocket - Pass Details

Date: 30 November 2020
Orbit: 807 x 859 km, 98.9° (Epoch: 27 January)

Event Time Altitude Azimuth Distance (km) Brightness Sun altitude
Exits shadow 18:01:06 66° 281° (W) 891 3.9 -30.3°
Drops below altitude 10° 18:06:05 10° 340° (NNW) 2,408 6.3 -31.1°
Sets 18:08:26 0° 343° (NNW) 3,340 7.0 -31.5°
